Year,Month,Day,Hour,Minute,Value (Times are PST for insolation in W/m^2)
2020,06,08,00,00,0.00
2020,06,08,00,01,0.00
2020,06,08,00,02,0.00
2020,06,08,00,03,0.00
2020,06,08,00,04,0.00
2020,06,08,00,05,0.00
2020,06,08,00,06,0.00
2020,06,08,00,07,0.00
2020,06,08,00,08,0.00
2020,06,08,00,09,0.00
2020,06,08,00,10,0.00
2020,06,08,00,11,0.00
2020,06,08,00,12,0.00
2020,06,08,00,13,0.00
2020,06,08,00,14,0.00
2020,06,08,00,15,0.00
2020,06,08,00,16,0.00
2020,06,08,00,17,0.00
2020,06,08,00,18,0.00
2020,06,08,00,19,0.00
2020,06,08,00,20,0.00
2020,06,08,00,21,0.00
2020,06,08,00,22,0.00
2020,06,08,00,23,0.00
2020,06,08,00,24,0.00
2020,06,08,00,25,0.00
2020,06,08,00,26,0.00
2020,06,08,00,27,0.00
2020,06,08,00,28,0.00
2020,06,08,00,29,0.00
2020,06,08,00,30,0.00
2020,06,08,00,31,0.00
2020,06,08,00,32,0.00
2020,06,08,00,33,0.00
2020,06,08,00,34,0.00
2020,06,08,00,35,0.00
2020,06,08,00,36,0.00
2020,06,08,00,37,0.00
2020,06,08,00,38,0.00
2020,06,08,00,39,0.00
2020,06,08,00,40,0.00
2020,06,08,00,41,0.00
2020,06,08,00,42,0.00
2020,06,08,00,43,0.00
2020,06,08,00,44,0.00
2020,06,08,00,45,0.00
2020,06,08,00,46,0.00
2020,06,08,00,47,0.00
2020,06,08,00,48,0.00
2020,06,08,00,49,0.00
2020,06,08,00,50,0.00
2020,06,08,00,51,0.00
2020,06,08,00,52,0.00
2020,06,08,00,53,0.00
2020,06,08,00,54,0.00
2020,06,08,00,55,0.00
2020,06,08,00,56,0.00
2020,06,08,00,57,0.00
2020,06,08,00,58,0.00
2020,06,08,00,59,0.00
2020,06,08,01,00,0.00
2020,06,08,01,01,0.00
2020,06,08,01,02,0.00
2020,06,08,01,03,0.00
2020,06,08,01,04,0.00
2020,06,08,01,05,0.00
2020,06,08,01,06,0.00
2020,06,08,01,07,0.00
2020,06,08,01,08,0.00
2020,06,08,01,09,0.00
2020,06,08,01,10,0.00
2020,06,08,01,11,0.00
2020,06,08,01,12,0.00
2020,06,08,01,13,0.00
2020,06,08,01,14,0.00
2020,06,08,01,15,0.00
2020,06,08,01,16,0.00
2020,06,08,01,17,0.00
2020,06,08,01,18,0.00
2020,06,08,01,19,0.00
2020,06,08,01,20,0.00
2020,06,08,01,21,0.00
2020,06,08,01,22,0.00
2020,06,08,01,23,0.00
2020,06,08,01,24,0.00
2020,06,08,01,25,0.00
2020,06,08,01,26,0.00
2020,06,08,01,27,0.00
2020,06,08,01,28,0.00
2020,06,08,01,29,0.00
2020,06,08,01,30,0.00
2020,06,08,01,31,0.00
2020,06,08,01,32,0.00
2020,06,08,01,33,0.00
2020,06,08,01,34,0.00
2020,06,08,01,35,0.00
2020,06,08,01,36,0.00
2020,06,08,01,37,0.00
2020,06,08,01,38,0.00
2020,06,08,01,39,0.00
2020,06,08,01,40,0.00
2020,06,08,01,41,0.00
2020,06,08,01,42,0.00
2020,06,08,01,43,0.00
2020,06,08,01,44,0.00
2020,06,08,01,45,0.00
2020,06,08,01,46,0.00
2020,06,08,01,47,0.00
2020,06,08,01,48,0.00
2020,06,08,01,49,0.00
2020,06,08,01,50,0.00
2020,06,08,01,51,0.00
2020,06,08,01,52,0.00
2020,06,08,01,53,0.00
2020,06,08,01,54,0.00
2020,06,08,01,55,0.00
2020,06,08,01,56,0.00
2020,06,08,01,57,0.00
2020,06,08,01,58,0.00
2020,06,08,01,59,0.00
2020,06,08,02,00,0.00
2020,06,08,02,01,0.00
2020,06,08,02,02,0.00
2020,06,08,02,03,0.00
2020,06,08,02,04,0.00
2020,06,08,02,05,0.00
2020,06,08,02,06,0.00
2020,06,08,02,07,0.00
2020,06,08,02,08,0.00
2020,06,08,02,09,0.00
2020,06,08,02,10,0.00
2020,06,08,02,11,0.00
2020,06,08,02,12,0.00
2020,06,08,02,13,0.00
2020,06,08,02,14,0.00
2020,06,08,02,15,0.00
2020,06,08,02,16,0.00
2020,06,08,02,17,0.00
2020,06,08,02,18,0.00
2020,06,08,02,19,0.00
2020,06,08,02,20,0.00
2020,06,08,02,21,0.00
2020,06,08,02,22,0.00
2020,06,08,02,23,0.00
2020,06,08,02,24,0.00
2020,06,08,02,25,0.00
2020,06,08,02,26,0.00
2020,06,08,02,27,0.00
2020,06,08,02,28,0.00
2020,06,08,02,29,0.00
2020,06,08,02,30,0.00
2020,06,08,02,31,0.00
2020,06,08,02,32,0.00
2020,06,08,02,33,0.00
2020,06,08,02,34,0.00
2020,06,08,02,35,0.00
2020,06,08,02,36,0.00
2020,06,08,02,37,0.00
2020,06,08,02,38,0.00
2020,06,08,02,39,0.00
2020,06,08,02,40,0.00
2020,06,08,02,41,0.00
2020,06,08,02,42,0.00
2020,06,08,02,43,0.00
2020,06,08,02,44,0.00
2020,06,08,02,45,0.00
2020,06,08,02,46,0.00
2020,06,08,02,47,0.00
2020,06,08,02,48,0.00
2020,06,08,02,49,0.00
2020,06,08,02,50,0.00
2020,06,08,02,51,0.00
2020,06,08,02,52,0.00
2020,06,08,02,53,0.00
2020,06,08,02,54,0.00
2020,06,08,02,55,0.00
2020,06,08,02,56,0.00
2020,06,08,02,57,0.00
2020,06,08,02,58,0.00
2020,06,08,02,59,0.00
2020,06,08,03,00,0.00
2020,06,08,03,01,0.00
2020,06,08,03,02,0.00
2020,06,08,03,03,0.00
2020,06,08,03,04,0.00
2020,06,08,03,05,0.00
2020,06,08,03,06,0.00
2020,06,08,03,07,0.00
2020,06,08,03,08,0.00
2020,06,08,03,09,0.00
2020,06,08,03,10,0.00
2020,06,08,03,11,0.00
2020,06,08,03,12,0.00
2020,06,08,03,13,0.00
2020,06,08,03,14,0.00
2020,06,08,03,15,0.00
2020,06,08,03,16,0.00
2020,06,08,03,17,0.00
2020,06,08,03,18,0.00
2020,06,08,03,19,0.00
2020,06,08,03,20,0.00
2020,06,08,03,21,0.00
2020,06,08,03,22,0.00
2020,06,08,03,23,0.00
2020,06,08,03,24,0.00
2020,06,08,03,25,0.00
2020,06,08,03,26,0.00
2020,06,08,03,27,0.00
2020,06,08,03,28,0.00
2020,06,08,03,29,0.00
2020,06,08,03,30,0.00
2020,06,08,03,31,0.00
2020,06,08,03,32,0.00
2020,06,08,03,33,0.00
2020,06,08,03,34,0.00
2020,06,08,03,35,0.00
2020,06,08,03,36,0.00
2020,06,08,03,37,0.00
2020,06,08,03,38,0.00
2020,06,08,03,39,0.00
2020,06,08,03,40,0.00
2020,06,08,03,41,0.00
2020,06,08,03,42,0.00
2020,06,08,03,43,0.00
2020,06,08,03,44,0.00
2020,06,08,03,45,0.00
2020,06,08,03,46,0.00
2020,06,08,03,47,0.00
2020,06,08,03,48,0.00
2020,06,08,03,49,0.00
2020,06,08,03,50,0.00
2020,06,08,03,51,0.00
2020,06,08,03,52,0.00
2020,06,08,03,53,0.00
2020,06,08,03,54,0.00
2020,06,08,03,55,0.00
2020,06,08,03,56,0.00
2020,06,08,03,57,0.00
2020,06,08,03,58,0.00
2020,06,08,03,59,0.00
2020,06,08,04,00,0.00
2020,06,08,04,01,0.00
2020,06,08,04,02,0.00
2020,06,08,04,03,0.00
2020,06,08,04,04,0.00
2020,06,08,04,05,0.00
2020,06,08,04,06,0.00
2020,06,08,04,07,0.00
2020,06,08,04,08,0.00
2020,06,08,04,09,0.00
2020,06,08,04,10,0.00
2020,06,08,04,11,0.00
2020,06,08,04,12,0.00
2020,06,08,04,13,0.00
2020,06,08,04,14,0.00
2020,06,08,04,15,0.00
2020,06,08,04,16,0.00
2020,06,08,04,17,0.00
2020,06,08,04,18,0.00
2020,06,08,04,19,0.00
2020,06,08,04,20,0.00
2020,06,08,04,21,0.00
2020,06,08,04,22,0.00
2020,06,08,04,23,0.00
2020,06,08,04,24,0.00
2020,06,08,04,25,0.00
2020,06,08,04,26,0.00
2020,06,08,04,27,0.00
2020,06,08,04,28,0.00
2020,06,08,04,29,0.00
2020,06,08,04,30,0.00
2020,06,08,04,31,0.00
2020,06,08,04,32,0.00
2020,06,08,04,33,0.00
2020,06,08,04,34,0.00
2020,06,08,04,35,0.00
2020,06,08,04,36,0.00
2020,06,08,04,37,0.00
2020,06,08,04,38,0.00
2020,06,08,04,39,0.00
2020,06,08,04,40,0.00
2020,06,08,04,41,0.00
2020,06,08,04,42,0.00
2020,06,08,04,43,0.00
2020,06,08,04,44,0.00
2020,06,08,04,45,0.00
2020,06,08,04,46,0.00
2020,06,08,04,47,0.00
2020,06,08,04,48,0.00
2020,06,08,04,49,0.00
2020,06,08,04,50,0.00
2020,06,08,04,51,0.00
2020,06,08,04,52,0.00
2020,06,08,04,53,0.00
2020,06,08,04,54,0.00
2020,06,08,04,55,0.00
2020,06,08,04,56,0.00
2020,06,08,04,57,0.00
2020,06,08,04,58,0.00
2020,06,08,04,59,0.00
2020,06,08,05,00,0.00
2020,06,08,05,01,0.00
2020,06,08,05,02,0.00
2020,06,08,05,03,0.00
2020,06,08,05,04,0.00
2020,06,08,05,05,0.00
2020,06,08,05,06,0.00
2020,06,08,05,07,0.00
2020,06,08,05,08,0.00
2020,06,08,05,09,0.00
2020,06,08,05,10,0.00
2020,06,08,05,11,0.00
2020,06,08,05,12,0.00
2020,06,08,05,13,0.00
2020,06,08,05,14,0.00
2020,06,08,05,15,0.00
2020,06,08,05,16,0.00
2020,06,08,05,17,4.50
2020,06,08,05,18,5.00
2020,06,08,05,19,5.00
2020,06,08,05,20,5.00
2020,06,08,05,21,5.00
2020,06,08,05,22,5.00
2020,06,08,05,23,5.20
2020,06,08,05,24,7.00
2020,06,08,05,25,7.00
2020,06,08,05,26,8.00
2020,06,08,05,27,9.00
2020,06,08,05,28,9.00
2020,06,08,05,29,10.90
2020,06,08,05,30,11.00
2020,06,08,05,31,11.00
2020,06,08,05,32,11.00
2020,06,08,05,33,11.00
2020,06,08,05,34,11.80
2020,06,08,05,35,12.00
2020,06,08,05,36,12.00
2020,06,08,05,37,12.90
2020,06,08,05,38,14.00
2020,06,08,05,39,14.00
2020,06,08,05,40,15.70
2020,06,08,05,41,16.00
2020,06,08,05,42,16.00
2020,06,08,05,43,16.80
2020,06,08,05,44,18.60
2020,06,08,05,45,19.00
2020,06,08,05,46,20.80
2020,06,08,05,47,23.00
2020,06,08,05,48,23.70
2020,06,08,05,49,25.50
2020,06,08,05,50,27.20
2020,06,08,05,51,28.00
2020,06,08,05,52,27.80
2020,06,08,05,53,26.00
2020,06,08,05,54,26.70
2020,06,08,05,55,30.00
2020,06,08,05,56,32.60
2020,06,08,05,57,40.00
2020,06,08,05,58,48.20
2020,06,08,05,59,43.80
2020,06,08,06,00,33.30
2020,06,08,06,01,30.00
2020,06,08,06,02,38.00
2020,06,08,06,03,49.10
2020,06,08,06,04,60.00
2020,06,08,06,05,66.40
2020,06,08,06,06,67.30
2020,06,08,06,07,60.40
2020,06,08,06,08,58.00
2020,06,08,06,09,43.10
2020,06,08,06,10,44.10
2020,06,08,06,11,51.00
2020,06,08,06,12,76.00
2020,06,08,06,13,86.50
2020,06,08,06,14,72.80
2020,06,08,06,15,65.50
2020,06,08,06,16,64.90
2020,06,08,06,17,47.90
2020,06,08,06,18,43.90
2020,06,08,06,19,43.30
2020,06,08,06,20,42.50
2020,06,08,06,21,45.70
2020,06,08,06,22,37.00
2020,06,08,06,23,37.00
2020,06,08,06,24,37.90
2020,06,08,06,25,39.60
2020,06,08,06,26,41.50
2020,06,08,06,27,44.00
2020,06,08,06,28,95.30
2020,06,08,06,29,120.00
2020,06,08,06,30,129.00
2020,06,08,06,31,131.20
2020,06,08,06,32,133.50
2020,06,08,06,33,135.10
2020,06,08,06,34,139.30
2020,06,08,06,35,141.40
2020,06,08,06,36,143.00
2020,06,08,06,37,146.50
2020,06,08,06,38,150.30
2020,06,08,06,39,154.70
2020,06,08,06,40,155.20
2020,06,08,06,41,156.80
2020,06,08,06,42,159.00
2020,06,08,06,43,162.00
2020,06,08,06,44,164.60
2020,06,08,06,45,167.10
2020,06,08,06,46,169.50
2020,06,08,06,47,172.20
2020,06,08,06,48,175.10
2020,06,08,06,49,178.10
2020,06,08,06,50,180.60
2020,06,08,06,51,185.00
2020,06,08,06,52,186.50
2020,06,08,06,53,188.80
2020,06,08,06,54,191.60
2020,06,08,06,55,193.00
2020,06,08,06,56,198.00
2020,06,08,06,57,200.30
2020,06,08,06,58,202.50
2020,06,08,06,59,204.80
2020,06,08,07,00,207.70
2020,06,08,07,01,211.90
2020,06,08,07,02,213.90
2020,06,08,07,03,216.50
2020,06,08,07,04,220.30
2020,06,08,07,05,221.90
2020,06,08,07,06,226.50
2020,06,08,07,07,229.70
2020,06,08,07,08,231.80
2020,06,08,07,09,234.50
2020,06,08,07,10,237.60
2020,06,08,07,11,240.00
2020,06,08,07,12,242.20
2020,06,08,07,13,245.20
2020,06,08,07,14,247.90
2020,06,08,07,15,250.20
2020,06,08,07,16,252.50
2020,06,08,07,17,256.00
2020,06,08,07,18,257.60
2020,06,08,07,19,261.10
2020,06,08,07,20,264.10
2020,06,08,07,21,267.00
2020,06,08,07,22,268.40
2020,06,08,07,23,272.50
2020,06,08,07,24,275.30
2020,06,08,07,25,278.40
2020,06,08,07,26,281.30
2020,06,08,07,27,285.50
2020,06,08,07,28,288.20
2020,06,08,07,29,292.10
2020,06,08,07,30,294.70
2020,06,08,07,31,298.30
2020,06,08,07,32,299.40
2020,06,08,07,33,302.50
2020,06,08,07,34,304.80
2020,06,08,07,35,307.70
2020,06,08,07,36,310.40
2020,06,08,07,37,314.30
2020,06,08,07,38,316.30
2020,06,08,07,39,319.10
2020,06,08,07,40,322.40
2020,06,08,07,41,325.20
2020,06,08,07,42,329.20
2020,06,08,07,43,330.00
2020,06,08,07,44,332.60
2020,06,08,07,45,336.60
2020,06,08,07,46,339.40
2020,06,08,07,47,343.40
2020,06,08,07,48,345.70
2020,06,08,07,49,349.50
2020,06,08,07,50,352.20
2020,06,08,07,51,354.20
2020,06,08,07,52,358.00
2020,06,08,07,53,360.80
2020,06,08,07,54,363.50
2020,06,08,07,55,366.00
2020,06,08,07,56,369.90
2020,06,08,07,57,373.30
2020,06,08,07,58,376.00
2020,06,08,07,59,379.20
2020,06,08,08,00,380.80
2020,06,08,08,01,386.80
2020,06,08,08,02,390.40
2020,06,08,08,03,392.70
2020,06,08,08,04,396.50
2020,06,08,08,05,400.30
2020,06,08,08,06,402.60
2020,06,08,08,07,404.30
2020,06,08,08,08,408.80
2020,06,08,08,09,412.60
2020,06,08,08,10,416.60
2020,06,08,08,11,419.40
2020,06,08,08,12,421.60
2020,06,08,08,13,425.40
2020,06,08,08,14,431.20
2020,06,08,08,15,434.50
2020,06,08,08,16,439.70
2020,06,08,08,17,443.80
2020,06,08,08,18,450.80
2020,06,08,08,19,455.90
2020,06,08,08,20,462.50
2020,06,08,08,21,465.70
2020,06,08,08,22,468.00
2020,06,08,08,23,465.30
2020,06,08,08,24,462.30
2020,06,08,08,25,464.80
2020,06,08,08,26,469.60
2020,06,08,08,27,472.90
2020,06,08,08,28,475.60
2020,06,08,08,29,477.50
2020,06,08,08,30,482.70
2020,06,08,08,31,485.00
2020,06,08,08,32,486.70
2020,06,08,08,33,493.00
2020,06,08,08,34,501.20
2020,06,08,08,35,513.00
2020,06,08,08,36,521.50
2020,06,08,08,37,527.50
2020,06,08,08,38,536.00
2020,06,08,08,39,540.50
2020,06,08,08,40,541.00
2020,06,08,08,41,544.10
2020,06,08,08,42,548.20
2020,06,08,08,43,563.00
2020,06,08,08,44,570.00
2020,06,08,08,45,578.10
2020,06,08,08,46,609.70
2020,06,08,08,47,632.60
2020,06,08,08,48,622.20
2020,06,08,08,49,590.40
2020,06,08,08,50,551.50
2020,06,08,08,51,539.00
2020,06,08,08,52,593.70
2020,06,08,08,53,600.70
2020,06,08,08,54,552.60
2020,06,08,08,55,632.50
2020,06,08,08,56,649.90
2020,06,08,08,57,605.00
2020,06,08,08,58,582.70
2020,06,08,08,59,585.00
2020,06,08,09,00,590.30
2020,06,08,09,01,630.00
2020,06,08,09,02,643.20
2020,06,08,09,03,628.40
2020,06,08,09,04,631.60
2020,06,08,09,05,647.30
2020,06,08,09,06,614.50
2020,06,08,09,07,629.50
2020,06,08,09,08,637.10
2020,06,08,09,09,684.70
2020,06,08,09,10,718.30
2020,06,08,09,11,730.60
2020,06,08,09,12,750.60
2020,06,08,09,13,761.70
2020,06,08,09,14,753.00
2020,06,08,09,15,736.00
2020,06,08,09,16,753.80
2020,06,08,09,17,695.10
2020,06,08,09,18,689.00
2020,06,08,09,19,698.00
2020,06,08,09,20,739.40
2020,06,08,09,21,770.30
2020,06,08,09,22,776.00
2020,06,08,09,23,799.90
2020,06,08,09,24,802.00
2020,06,08,09,25,775.00
2020,06,08,09,26,691.30
2020,06,08,09,27,668.00
2020,06,08,09,28,418.50
2020,06,08,09,29,366.00
2020,06,08,09,30,366.00
2020,06,08,09,31,366.00
2020,06,08,09,32,513.70
2020,06,08,09,33,666.70
2020,06,08,09,34,663.40
2020,06,08,09,35,642.30
2020,06,08,09,36,670.60
2020,06,08,09,37,707.00
2020,06,08,09,38,774.20
2020,06,08,09,39,761.40
2020,06,08,09,40,736.80
2020,06,08,09,41,738.00
2020,06,08,09,42,727.10
2020,06,08,09,43,706.40
2020,06,08,09,44,748.50
2020,06,08,09,45,704.20
2020,06,08,09,46,675.00
2020,06,08,09,47,635.40
2020,06,08,09,48,466.10
2020,06,08,09,49,460.90
2020,06,08,09,50,401.00
2020,06,08,09,51,391.10
2020,06,08,09,52,397.50
2020,06,08,09,53,433.50
2020,06,08,09,54,431.90
2020,06,08,09,55,526.00
2020,06,08,09,56,578.00
2020,06,08,09,57,578.00
2020,06,08,09,58,531.60
2020,06,08,09,59,527.00
2020,06,08,10,00,637.30
2020,06,08,10,01,844.00
2020,06,08,10,02,844.00
2020,06,08,10,03,657.00
2020,06,08,10,04,530.20
2020,06,08,10,05,510.00
2020,06,08,10,06,485.00
2020,06,08,10,07,485.00
2020,06,08,10,08,485.00
2020,06,08,10,09,485.00
2020,06,08,10,10,666.10
2020,06,08,10,11,615.10
2020,06,08,10,12,680.00
2020,06,08,10,13,680.00
2020,06,08,10,14,680.00
2020,06,08,10,15,518.90
2020,06,08,10,16,485.00
2020,06,08,10,17,509.50
2020,06,08,10,18,600.00
2020,06,08,10,19,635.00
2020,06,08,10,20,564.00
2020,06,08,10,21,533.00
2020,06,08,10,22,768.00
2020,06,08,10,23,735.90
2020,06,08,10,24,645.00
2020,06,08,10,25,645.00
2020,06,08,10,26,608.90
2020,06,08,10,27,630.50
2020,06,08,10,28,688.50
2020,06,08,10,29,725.80
2020,06,08,10,30,712.30
2020,06,08,10,31,679.00
2020,06,08,10,32,633.10
2020,06,08,10,33,633.60
2020,06,08,10,34,716.60
2020,06,08,10,35,699.80
2020,06,08,10,36,645.00
2020,06,08,10,37,728.20
2020,06,08,10,38,713.00
2020,06,08,10,39,754.50
2020,06,08,10,40,744.10
2020,06,08,10,41,658.90
2020,06,08,10,42,606.50
2020,06,08,10,43,579.30
2020,06,08,10,44,596.50
2020,06,08,10,45,637.70
2020,06,08,10,46,631.00
2020,06,08,10,47,580.90
2020,06,08,10,48,478.40
2020,06,08,10,49,483.70
2020,06,08,10,50,475.40
2020,06,08,10,51,453.90
2020,06,08,10,52,466.80
2020,06,08,10,53,463.70
2020,06,08,10,54,465.30
2020,06,08,10,55,512.30
2020,06,08,10,56,495.60
2020,06,08,10,57,514.40
2020,06,08,10,58,564.00
2020,06,08,10,59,524.70
2020,06,08,11,00,519.50
2020,06,08,11,01,472.40
2020,06,08,11,02,523.20
2020,06,08,11,03,529.10
2020,06,08,11,04,548.50
2020,06,08,11,05,569.80
2020,06,08,11,06,578.00
2020,06,08,11,07,578.00
2020,06,08,11,08,583.20
2020,06,08,11,09,584.00
2020,06,08,11,10,576.40
2020,06,08,11,11,560.70
2020,06,08,11,12,563.00
2020,06,08,11,13,563.00
2020,06,08,11,14,840.50
2020,06,08,11,15,803.00
2020,06,08,11,16,759.00
2020,06,08,11,17,610.40
2020,06,08,11,18,568.00
2020,06,08,11,19,568.00
2020,06,08,11,20,568.00
2020,06,08,11,21,568.00
2020,06,08,11,22,568.00
2020,06,08,11,23,699.00
2020,06,08,11,24,830.00
2020,06,08,11,25,830.00
2020,06,08,11,26,732.40
2020,06,08,11,27,680.20
2020,06,08,11,28,508.00
2020,06,08,11,29,508.00
2020,06,08,11,30,508.00
2020,06,08,11,31,699.70
2020,06,08,11,32,731.40
2020,06,08,11,33,731.00
2020,06,08,11,34,731.00
2020,06,08,11,35,734.10
2020,06,08,11,36,737.00
2020,06,08,11,37,940.20
2020,06,08,11,38,983.00
2020,06,08,11,39,938.90
2020,06,08,11,40,814.00
2020,06,08,11,41,814.00
2020,06,08,11,42,644.30
2020,06,08,11,43,597.50
2020,06,08,11,44,630.50
2020,06,08,11,45,814.00
2020,06,08,11,46,698.30
2020,06,08,11,47,527.40
2020,06,08,11,48,580.70
2020,06,08,11,49,563.50
2020,06,08,11,50,520.50
2020,06,08,11,51,510.90
2020,06,08,11,52,504.70
2020,06,08,11,53,529.00
2020,06,08,11,54,547.00
2020,06,08,11,55,789.40
2020,06,08,11,56,787.70
2020,06,08,11,57,615.00
2020,06,08,11,58,615.00
2020,06,08,11,59,615.00
2020,06,08,12,00,615.00
2020,06,08,12,01,645.90
2020,06,08,12,02,612.00
2020,06,08,12,03,465.70
2020,06,08,12,04,496.70
2020,06,08,12,05,527.00
2020,06,08,12,06,527.00
2020,06,08,12,07,527.00
2020,06,08,12,08,542.70
2020,06,08,12,09,599.50
2020,06,08,12,10,606.00
2020,06,08,12,11,690.00
2020,06,08,12,12,738.00
2020,06,08,12,13,738.00
2020,06,08,12,14,738.00
2020,06,08,12,15,679.70
2020,06,08,12,16,630.20
2020,06,08,12,17,612.00
2020,06,08,12,18,584.00
2020,06,08,12,19,581.10
2020,06,08,12,20,582.10
2020,06,08,12,21,630.40
2020,06,08,12,22,567.50
2020,06,08,12,23,531.00
2020,06,08,12,24,482.30
2020,06,08,12,25,472.10
2020,06,08,12,26,464.70
2020,06,08,12,27,458.50
2020,06,08,12,28,456.20
2020,06,08,12,29,455.00
2020,06,08,12,30,447.00
2020,06,08,12,31,429.20
2020,06,08,12,32,418.50
2020,06,08,12,33,415.00
2020,06,08,12,34,420.50
2020,06,08,12,35,439.50
2020,06,08,12,36,446.50
2020,06,08,12,37,480.00
2020,06,08,12,38,546.30
2020,06,08,12,39,679.00
2020,06,08,12,40,546.90
2020,06,08,12,41,484.50
2020,06,08,12,42,523.90
2020,06,08,12,43,547.00
2020,06,08,12,44,547.00
2020,06,08,12,45,547.00
2020,06,08,12,46,547.00
2020,06,08,12,47,626.60
2020,06,08,12,48,637.20
2020,06,08,12,49,636.00
2020,06,08,12,50,636.00
2020,06,08,12,51,636.00
2020,06,08,12,52,575.30
2020,06,08,12,53,526.40
2020,06,08,12,54,542.90
2020,06,08,12,55,568.70
2020,06,08,12,56,608.70
2020,06,08,12,57,540.00
2020,06,08,12,58,545.10
2020,06,08,12,59,509.00
2020,06,08,13,00,476.60
2020,06,08,13,01,482.80
2020,06,08,13,02,484.20
2020,06,08,13,03,497.10
2020,06,08,13,04,508.00
2020,06,08,13,05,508.00
2020,06,08,13,06,629.10
2020,06,08,13,07,647.70
2020,06,08,13,08,642.00
2020,06,08,13,09,642.00
2020,06,08,13,10,642.00
2020,06,08,13,11,628.10
2020,06,08,13,12,626.00
2020,06,08,13,13,626.00
2020,06,08,13,14,626.00
2020,06,08,13,15,662.50
2020,06,08,13,16,694.70
2020,06,08,13,17,701.30
2020,06,08,13,18,764.10
2020,06,08,13,19,723.00
2020,06,08,13,20,743.50
2020,06,08,13,21,712.60
2020,06,08,13,22,677.00
2020,06,08,13,23,677.00
2020,06,08,13,24,677.00
2020,06,08,13,25,677.00
2020,06,08,13,26,955.50
2020,06,08,13,27,1234.00
2020,06,08,13,28,1234.00
2020,06,08,13,29,1126.40
2020,06,08,13,30,1130.00
2020,06,08,13,31,1067.40
2020,06,08,13,32,958.00
2020,06,08,13,33,695.20
2020,06,08,13,34,537.80
2020,06,08,13,35,624.50
2020,06,08,13,36,629.00
2020,06,08,13,37,563.80
2020,06,08,13,38,419.50
2020,06,08,13,39,372.70
2020,06,08,13,40,372.20
2020,06,08,13,41,416.60
2020,06,08,13,42,494.10
2020,06,08,13,43,539.50
2020,06,08,13,44,557.80
2020,06,08,13,45,566.00
2020,06,08,13,46,566.00
2020,06,08,13,47,453.40
2020,06,08,13,48,488.60
2020,06,08,13,49,544.40
2020,06,08,13,50,572.90
2020,06,08,13,51,570.00
2020,06,08,13,52,570.00
2020,06,08,13,53,536.80
2020,06,08,13,54,566.00
2020,06,08,13,55,566.00
2020,06,08,13,56,566.00
2020,06,08,13,57,598.90
2020,06,08,13,58,560.00
2020,06,08,13,59,585.30
2020,06,08,14,00,654.00
2020,06,08,14,01,654.00
2020,06,08,14,02,654.00
2020,06,08,14,03,654.00
2020,06,08,14,04,688.30
2020,06,08,14,05,1443.00
2020,06,08,14,06,1426.00
2020,06,08,14,07,1394.00
2020,06,08,14,08,1394.00
2020,06,08,14,09,1224.90
2020,06,08,14,10,1102.30
2020,06,08,14,11,1095.00
2020,06,08,14,12,1095.00
2020,06,08,14,13,1095.00
2020,06,08,14,14,694.80
2020,06,08,14,15,481.90
2020,06,08,14,16,468.60
2020,06,08,14,17,473.80
2020,06,08,14,18,483.20
2020,06,08,14,19,485.00
2020,06,08,14,20,537.00
2020,06,08,14,21,584.00
2020,06,08,14,22,514.80
2020,06,08,14,23,506.40
2020,06,08,14,24,509.80
2020,06,08,14,25,460.60
2020,06,08,14,26,447.80
2020,06,08,14,27,427.70
2020,06,08,14,28,407.10
2020,06,08,14,29,384.70
2020,06,08,14,30,373.90
2020,06,08,14,31,367.20
2020,06,08,14,32,364.00
2020,06,08,14,33,364.00
2020,06,08,14,34,352.50
2020,06,08,14,35,358.80
2020,06,08,14,36,376.60
2020,06,08,14,37,416.50
2020,06,08,14,38,434.00
2020,06,08,14,39,489.10
2020,06,08,14,40,487.60
2020,06,08,14,41,431.70
2020,06,08,14,42,396.10
2020,06,08,14,43,375.70
2020,06,08,14,44,373.10
2020,06,08,14,45,387.50
2020,06,08,14,46,455.80
2020,06,08,14,47,431.70
2020,06,08,14,48,420.10
2020,06,08,14,49,406.40
2020,06,08,14,50,404.00
2020,06,08,14,51,414.90
2020,06,08,14,52,466.70
2020,06,08,14,53,507.20
2020,06,08,14,54,582.00
2020,06,08,14,55,619.00
2020,06,08,14,56,823.20
2020,06,08,14,57,877.00
2020,06,08,14,58,877.00
2020,06,08,14,59,877.00
2020,06,08,15,00,630.20
2020,06,08,15,01,404.00
2020,06,08,15,02,404.00
2020,06,08,15,03,404.00
2020,06,08,15,04,404.00
2020,06,08,15,05,427.30
2020,06,08,15,06,468.00
2020,06,08,15,07,468.00
2020,06,08,15,08,468.00
2020,06,08,15,09,468.00
2020,06,08,15,10,468.00
2020,06,08,15,11,468.00
2020,06,08,15,12,518.30
2020,06,08,15,13,557.00
2020,06,08,15,14,557.00
2020,06,08,15,15,557.00
2020,06,08,15,16,492.80
2020,06,08,15,17,359.00
2020,06,08,15,18,400.50
2020,06,08,15,19,418.00
2020,06,08,15,20,432.90
2020,06,08,15,21,761.00
2020,06,08,15,22,819.00
2020,06,08,15,23,935.00
2020,06,08,15,24,935.00
2020,06,08,15,25,521.30
2020,06,08,15,26,379.20
2020,06,08,15,27,349.30
2020,06,08,15,28,334.60
2020,06,08,15,29,335.50
2020,06,08,15,30,343.50
2020,06,08,15,31,355.00
2020,06,08,15,32,365.90
2020,06,08,15,33,376.60
2020,06,08,15,34,402.50
2020,06,08,15,35,427.90
2020,06,08,15,36,413.90
2020,06,08,15,37,396.70
2020,06,08,15,38,395.30
2020,06,08,15,39,415.00
2020,06,08,15,40,436.80
2020,06,08,15,41,427.60
2020,06,08,15,42,405.30
2020,06,08,15,43,389.10
2020,06,08,15,44,392.70
2020,06,08,15,45,384.00
2020,06,08,15,46,376.80
2020,06,08,15,47,385.90
2020,06,08,15,48,412.90
2020,06,08,15,49,456.80
2020,06,08,15,50,462.00
2020,06,08,15,51,445.70
2020,06,08,15,52,386.90
2020,06,08,15,53,346.20
2020,06,08,15,54,311.80
2020,06,08,15,55,290.10
2020,06,08,15,56,284.20
2020,06,08,15,57,292.70
2020,06,08,15,58,306.40
2020,06,08,15,59,326.50
2020,06,08,16,00,352.50
2020,06,08,16,01,365.90
2020,06,08,16,02,394.00
2020,06,08,16,03,409.60
2020,06,08,16,04,424.70
2020,06,08,16,05,407.90
2020,06,08,16,06,417.80
2020,06,08,16,07,416.40
2020,06,08,16,08,428.80
2020,06,08,16,09,389.50
2020,06,08,16,10,382.00
2020,06,08,16,11,405.20
2020,06,08,16,12,439.70
2020,06,08,16,13,456.80
2020,06,08,16,14,496.70
2020,06,08,16,15,429.30
2020,06,08,16,16,425.40
2020,06,08,16,17,439.00
2020,06,08,16,18,439.00
2020,06,08,16,19,439.00
2020,06,08,16,20,439.00
2020,06,08,16,21,409.70
2020,06,08,16,22,356.40
2020,06,08,16,23,353.50
2020,06,08,16,24,378.10
2020,06,08,16,25,451.40
2020,06,08,16,26,440.30
2020,06,08,16,27,413.00
2020,06,08,16,28,413.00
2020,06,08,16,29,413.00
2020,06,08,16,30,413.00
2020,06,08,16,31,515.30
2020,06,08,16,32,463.90
2020,06,08,16,33,450.50
2020,06,08,16,34,439.90
2020,06,08,16,35,479.90
2020,06,08,16,36,521.30
2020,06,08,16,37,530.80
2020,06,08,16,38,466.70
2020,06,08,16,39,461.20
2020,06,08,16,40,457.00
2020,06,08,16,41,450.00
2020,06,08,16,42,399.00
2020,06,08,16,43,386.00
2020,06,08,16,44,383.10
2020,06,08,16,45,410.90
2020,06,08,16,46,431.30
2020,06,08,16,47,409.30
2020,06,08,16,48,403.00
2020,06,08,16,49,390.20
2020,06,08,16,50,330.40
2020,06,08,16,51,316.50
2020,06,08,16,52,314.30
2020,06,08,16,53,324.40
2020,06,08,16,54,280.80
2020,06,08,16,55,260.50
2020,06,08,16,56,250.90
2020,06,08,16,57,236.20
2020,06,08,16,58,223.80
2020,06,08,16,59,222.60
2020,06,08,17,00,227.60
2020,06,08,17,01,239.80
2020,06,08,17,02,258.20
2020,06,08,17,03,283.60
2020,06,08,17,04,314.70
2020,06,08,17,05,342.30